Location: Berduj
(43.0019°N, 22.3781°E)
Time: 04:10:01
(UTC+00:00)

OAO 3 Rocket - Pass Details

Date: 19 October 2019
Orbit: 630 x 682 km, 35.0° (Epoch: 13 November)

Event Time Altitude Azimuth Distance (km) Brightness Sun altitude
Rises 16:28:37 0° 255° (WSW) 2,997 8.6 -9.2°
Reaches altitude 10° 16:31:10 10° 245° (WSW) 2,092 7.1 -9.7°
Maximum altitude 16:35:31 32° 183° (S) 1,147 4.5 -10.5°
Enters shadow 16:39:53 10° 120° (ESE) 2,107 5.3 -11.3°
